TimeEDT,TemperatureF,Dew PointF,Humidity,Sea Level PressureIn,VisibilityMPH,Wind Direction,Wind SpeedMPH,Gust SpeedMPH,PrecipitationIn,Events,Conditions,WindDirDegrees,DateUTC
12:33 AM,46.4,39.7,78,29.62,10.0,SE,5.8,-,N/A,,Overcast,130,2012-10-19 04:33:00
1:14 AM,46.4,39.6,77,29.60,10.0,SE,6.9,-,N/A,,Scattered Clouds,140,2012-10-19 05:14:00
1:33 AM,46.0,39.9,79,29.60,10.0,SE,5.8,-,N/A,,Mostly Cloudy,140,2012-10-19 05:33:00
1:54 AM,46.4,39.4,77,29.60,10.0,SE,5.8,-,N/A,,Overcast,140,2012-10-19 05:54:00
2:14 AM,46.8,38.5,73,29.60,10.0,SE,4.6,-,N/A,,Overcast,130,2012-10-19 06:14:00
2:33 AM,46.0,39.0,76,29.60,10.0,ESE,5.8,-,N/A,,Overcast,120,2012-10-19 06:33:00
2:54 AM,46.8,40.3,78,29.60,10.0,ESE,8.1,-,N/A,,Overcast,120,2012-10-19 06:54:00
3:14 AM,46.4,41.0,81,29.60,10.0,ESE,5.8,-,N/A,,Overcast,110,2012-10-19 07:14:00
3:34 AM,46.0,41.0,83,29.60,10.0,SE,5.8,-,N/A,,Mostly Cloudy,140,2012-10-19 07:34:00
3:54 AM,46.4,39.9,78,29.60,10.0,SSE,5.8,-,N/A,,Scattered Clouds,150,2012-10-19 07:54:00
4:14 AM,46.0,39.6,78,29.60,10.0,SE,6.9,-,N/A,,Clear,140,2012-10-19 08:14:00
4:54 AM,45.9,39.4,78,29.60,10.0,SE,5.8,-,N/A,,Mostly Cloudy,130,2012-10-19 08:54:00
5:14 AM,45.5,39.4,79,29.60,10.0,ESE,5.8,-,N/A,,Scattered Clouds,120,2012-10-19 09:14:00
5:34 AM,45.5,39.4,79,29.60,10.0,SE,6.9,-,N/A,,Clear,130,2012-10-19 09:34:00
5:54 AM,45.5,39.2,79,29.60,10.0,SE,3.5,-,N/A,,Scattered Clouds,130,2012-10-19 09:54:00
6:14 AM,45.5,39.2,79,29.60,10.0,SE,4.6,-,N/A,,Scattered Clouds,130,2012-10-19 10:14:00
6:34 AM,45.5,38.8,78,29.61,10.0,SE,4.6,-,N/A,,Mostly Cloudy,140,2012-10-19 10:34:00
6:54 AM,45.5,39.6,80,29.61,10.0,SSE,3.5,-,N/A,,Scattered Clouds,150,2012-10-19 10:54:00
7:14 AM,45.7,40.3,81,29.62,10.0,SSE,3.5,-,N/A,,Overcast,160,2012-10-19 11:14:00
7:34 AM,45.5,40.1,81,29.62,10.0,SE,3.5,-,N/A,,Overcast,140,2012-10-19 11:34:00
7:54 AM,45.5,39.6,80,29.62,10.0,SE,5.8,-,N/A,,Mostly Cloudy,140,2012-10-19 11:54:00
8:14 AM,45.5,39.7,80,29.63,10.0,SSE,3.5,-,N/A,,Scattered Clouds,150,2012-10-19 12:14:00
8:34 AM,45.5,40.3,82,29.63,10.0,ESE,3.5,-,N/A,,Overcast,120,2012-10-19 12:34:00
8:54 AM,45.9,41.0,83,29.64,10.0,ESE,6.9,-,N/A,,Overcast,120,2012-10-19 12:54:00
9:14 AM,46.4,40.8,81,29.63,10.0,ESE,3.5,-,N/A,,Mostly Cloudy,120,2012-10-19 13:14:00
9:34 AM,46.6,41.0,81,29.63,10.0,Calm,Calm,-,N/A,,Scattered Clouds,0,2012-10-19 13:34:00
9:54 AM,46.4,41.4,83,29.63,10.0,East,4.6,-,N/A,,Overcast,80,2012-10-19 13:54:00
10:14 AM,46.9,41.7,82,29.63,10.0,NE,6.9,-,N/A,,Mostly Cloudy,50,2012-10-19 14:14:00
10:34 AM,47.7,42.1,81,29.63,10.0,ENE,5.8,-,N/A,,Scattered Clouds,70,2012-10-19 14:34:00
10:54 AM,48.2,41.5,78,29.63,10.0,East,8.1,-,N/A,,Scattered Clouds,80,2012-10-19 14:54:00
11:14 AM,48.7,43.5,82,29.63,10.0,ENE,5.8,-,N/A,,Scattered Clouds,70,2012-10-19 15:14:00
11:34 AM,48.6,44.8,87,29.62,10.0,East,8.1,-,N/A,,Mostly Cloudy,80,2012-10-19 15:34:00
11:54 AM,48.2,46.0,92,29.62,10.0,East,8.1,-,N/A,,Overcast,80,2012-10-19 15:54:00
12:14 PM,48.9,47.3,94,29.62,5.0,East,10.4,20.7,N/A,,Overcast,100,2012-10-19 16:14:00
12:34 PM,48.7,47.3,95,29.63,5.0,East,11.5,20.7,N/A,,Overcast,90,2012-10-19 16:34:00
12:54 PM,49.1,47.3,93,29.62,5.0,East,11.5,20.7,N/A,,Overcast,100,2012-10-19 16:54:00
1:14 PM,48.7,47.3,95,29.61,5.0,East,9.2,19.6,N/A,,Overcast,100,2012-10-19 17:14:00
1:34 PM,48.6,46.8,93,29.60,5.0,East,10.4,18.4,N/A,,Overcast,80,2012-10-19 17:34:00
1:54 PM,48.2,46.4,93,29.63,3.0,SSE,12.7,21.9,N/A,Rain,Heavy Rain,160,2012-10-19 17:54:00
2:13 PM,44.2,41.5,90,29.61,10.0,SSE,3.5,-,N/A,Rain,Light Rain,150,2012-10-19 18:13:00
2:34 PM,45.0,42.6,91,29.61,7.0,East,4.6,-,N/A,Rain,Light Rain,100,2012-10-19 18:34:00
3:13 PM,44.8,42.8,93,29.60,5.0,East,5.8,-,N/A,Rain,Light Rain,90,2012-10-19 19:13:00
3:34 PM,45.5,43.7,93,29.60,10.0,East,6.9,-,N/A,Rain,Light Rain,90,2012-10-19 19:34:00
3:54 PM,45.9,43.7,92,29.60,10.0,ESE,8.1,-,N/A,,Overcast,110,2012-10-19 19:54:00
4:13 PM,46.4,44.1,92,29.59,10.0,ESE,5.8,-,N/A,,Overcast,110,2012-10-19 20:13:00
4:34 PM,46.8,44.6,92,29.59,10.0,East,6.9,-,N/A,,Overcast,90,2012-10-19 20:34:00
5:14 PM,46.4,44.4,93,29.60,10.0,East,8.1,-,N/A,,Overcast,80,2012-10-19 21:14:00
5:34 PM,46.6,44.6,93,29.59,10.0,East,6.9,-,N/A,,Light Drizzle,90,2012-10-19 21:34:00
5:54 PM,46.8,44.8,93,29.59,10.0,East,5.8,-,N/A,,Overcast,90,2012-10-19 21:54:00
6:14 PM,47.5,45.0,91,29.59,10.0,East,6.9,16.1,N/A,,Overcast,100,2012-10-19 22:14:00
6:54 PM,47.8,45.5,92,29.60,10.0,SE,5.8,-,N/A,,Overcast,140,2012-10-19 22:54:00
7:14 PM,48.2,45.5,90,29.60,7.0,ESE,6.9,-,N/A,Rain,Rain,120,2012-10-19 23:14:00
7:54 PM,45.0,43.3,94,29.61,2.5,SE,3.5,-,N/A,,Overcast,140,2012-10-19 23:54:00
8:14 PM,45.3,43.5,93,29.61,7.0,ENE,4.6,-,N/A,Rain,Light Rain,60,2012-10-20 00:14:00
8:34 PM,45.3,43.7,94,29.61,10.0,East,6.9,-,N/A,,Overcast,90,2012-10-20 00:34:00
8:54 PM,45.5,44.1,95,29.62,10.0,East,10.4,16.1,N/A,,Overcast,90,2012-10-20 00:54:00
9:14 PM,45.5,43.9,94,29.62,10.0,East,8.1,17.3,N/A,,Overcast,100,2012-10-20 01:14:00
9:34 PM,45.9,44.6,95,29.62,10.0,East,11.5,-,N/A,,Overcast,90,2012-10-20 01:34:00
10:14 PM,45.5,43.9,94,29.61,10.0,East,6.9,-,N/A,,Mostly Cloudy,80,2012-10-20 02:14:00
10:34 PM,45.3,43.9,95,29.62,10.0,East,9.2,-,N/A,,Mostly Cloudy,80,2012-10-20 02:34:00
10:54 PM,45.5,43.9,94,29.62,10.0,East,10.4,-,N/A,,Mostly Cloudy,90,2012-10-20 02:54:00
11:14 PM,45.5,43.7,93,29.61,10.0,East,8.1,-,N/A,,Scattered Clouds,80,2012-10-20 03:14:00
11:34 PM,45.7,43.9,93,29.61,10.0,East,9.2,-,N/A,,Scattered Clouds,90,2012-10-20 03:34:00
11:54 PM,45.9,43.9,93,29.61,10.0,East,8.1,-,N/A,,Scattered Clouds,80,2012-10-20 03:54:00